User: anonymous   Login
Location: *
(18.5200°S, 46.4500°E)
Time: 01:56:37
(UTC+00:00)
Language:

Cosmos 1980 Rocket - Orbit

View from above orbital plane
View from above orbital plane
View from above satellite
View from above satellite

Ground track
Ground track

The orbit data is extracted from the following two-line orbital elements,

1 19650U 88102B   19262.04601907  .00000248  00000-0  15039-3 0  9992
2 19650  70.9983  82.7208 0014115   0.4323 359.6809 14.15781749592609
Epoch (UTC): 19 September 2019 01:06:16
Eccentricity: 0.0014115
inclination: 70.9983°
perigee height: 829 km
apogee height: 850 km
right ascension of ascending node: 82.7208°
argument of perigee: 0.4323°
revolutions per day: 14.15781749
mean anomaly at epoch: 359.6809°
orbit number at epoch: 59260

The dashed part of the orbit path shows where the satellite is in the earth's shadow,  

DLR